Time,TemperatureF,DewpointF,PressureIn,WindDirection,WindDirectionDegrees,WindSpeedMPH,WindSpeedGustMPH,Humidity,HourlyPrecipIn,Conditions,Clouds,dailyrainin,SoftwareType,DateUTC
2013-01-19 00:04:00,35.0,20.0,-100.00,SSW,205,12.0,25.0,53,0.00,,,-99.99,,2013-01-19 05:04:00,
2013-01-19 00:12:00,35.0,20.0,-100.00,SSW,195,11.0,30.0,53,0.00,,,-99.99,,2013-01-19 05:12:00,
2013-01-19 00:23:00,35.0,20.0,-100.00,SSW,205,17.0,29.0,53,0.00,,,-99.99,,2013-01-19 05:23:00,
2013-01-19 00:33:00,35.0,20.0,-100.00,SSW,200,15.0,29.0,53,0.00,,,-99.99,,2013-01-19 05:33:00,
2013-01-19 00:43:00,35.0,20.0,-100.00,SSW,195,15.0,30.0,53,0.00,,,-99.99,,2013-01-19 05:43:00,
2013-01-19 00:52:00,35.0,20.0,-100.00,SSW,195,15.0,30.0,53,0.00,,,-99.99,,2013-01-19 05:52:00,
2013-01-19 01:03:00,35.0,20.0,-100.00,SW,230,10.0,24.0,53,0.00,,,-99.99,,2013-01-19 06:03:00,
2013-01-19 01:12:00,35.0,20.0,-100.00,SW,220,13.0,26.0,53,0.00,,,-99.99,,2013-01-19 06:12:00,
2013-01-19 01:22:00,35.0,20.0,-100.00,SSW,210,7.0,23.0,53,0.00,,,-99.99,,2013-01-19 06:22:00,
2013-01-19 01:33:00,35.0,20.0,-100.00,SW,220,6.0,17.0,54,0.00,,,-99.99,,2013-01-19 06:33:00,
2013-01-19 01:43:00,35.0,20.0,-100.00,SSW,205,11.0,20.0,54,0.00,,,-99.99,,2013-01-19 06:43:00,
2013-01-19 01:52:00,35.0,20.0,-100.00,South,175,7.0,20.0,54,0.00,,,-99.99,,2013-01-19 06:52:00,
2013-01-19 02:02:00,35.0,20.0,-100.00,SSW,205,9.0,17.0,54,0.00,,,-99.99,,2013-01-19 07:02:00,
2013-01-19 02:12:00,36.0,21.0,-100.00,SSW,200,11.0,19.0,54,0.00,,,-99.99,,2013-01-19 07:12:00,
2013-01-19 02:22:00,36.0,21.0,-100.00,SSW,210,8.0,20.0,54,0.00,,,-99.99,,2013-01-19 07:22:00,
2013-01-19 02:33:00,36.0,21.0,-100.00,SSW,205,7.0,21.0,54,0.00,,,-99.99,,2013-01-19 07:33:00,
2013-01-19 02:43:00,36.0,21.0,-100.00,SSW,205,12.0,20.0,53,0.00,,,-99.99,,2013-01-19 07:43:00,
2013-01-19 02:52:00,36.0,21.0,-100.00,SSW,200,11.0,20.0,53,0.00,,,-99.99,,2013-01-19 07:52:00,
2013-01-19 03:02:00,36.0,21.0,-100.00,SSW,210,12.0,21.0,53,0.00,,,-99.99,,2013-01-19 08:02:00,
2013-01-19 03:12:00,36.0,21.0,-100.00,SSW,195,12.0,20.0,53,0.00,,,-99.99,,2013-01-19 08:12:00,
2013-01-19 03:22:00,36.0,21.0,-100.00,SSW,200,9.0,19.0,53,0.00,,,-99.99,,2013-01-19 08:22:00,
2013-01-19 03:32:00,36.0,21.0,-100.00,SSW,205,9.0,16.0,53,0.00,,,-99.99,,2013-01-19 08:32:00,
2013-01-19 03:43:00,36.0,21.0,-100.00,SSW,210,10.0,19.0,53,0.00,,,-99.99,,2013-01-19 08:43:00,
2013-01-19 03:52:00,36.0,21.0,-100.00,SW,215,7.0,18.0,52,0.00,,,-99.99,,2013-01-19 08:52:00,
2013-01-19 04:02:00,36.0,21.0,-100.00,SSW,210,7.0,15.0,52,0.00,,,-99.99,,2013-01-19 09:02:00,
2013-01-19 04:12:00,37.0,21.0,-100.00,SW,215,7.0,16.0,51,0.00,,,-99.99,,2013-01-19 09:12:00,
2013-01-19 04:23:00,37.0,21.0,-100.00,SW,220,6.0,15.0,51,0.00,,,-99.99,,2013-01-19 09:23:00,
2013-01-19 04:33:00,37.0,21.0,-100.00,SSW,210,9.0,16.0,51,0.00,,,-99.99,,2013-01-19 09:33:00,
2013-01-19 04:42:00,38.0,21.0,-100.00,SSW,210,6.0,15.0,50,0.00,,,-99.99,,2013-01-19 09:42:00,
2013-01-19 04:52:00,38.0,21.0,-100.00,SSW,200,7.0,14.0,49,0.00,,,-99.99,,2013-01-19 09:52:00,
2013-01-19 05:02:00,38.0,21.0,-100.00,SW,215,7.0,13.0,49,0.00,,,-99.99,,2013-01-19 10:02:00,
2013-01-19 05:12:00,38.0,21.0,-100.00,SW,215,9.0,14.0,48,0.00,,,-99.99,,2013-01-19 10:12:00,
2013-01-19 05:22:00,39.0,21.0,-100.00,SW,215,9.0,20.0,47,0.00,,,-99.99,,2013-01-19 10:22:00,
2013-01-19 05:32:00,39.0,21.0,-100.00,SSW,205,9.0,16.0,47,0.00,,,-99.99,,2013-01-19 10:32:00,
2013-01-19 05:43:00,39.0,21.0,-100.00,SW,215,7.0,16.0,47,0.00,,,-99.99,,2013-01-19 10:43:00,
2013-01-19 05:52:00,39.0,21.0,-100.00,SW,220,7.0,16.0,47,0.00,,,-99.99,,2013-01-19 10:52:00,
2013-01-19 06:03:00,39.0,21.0,-100.00,SW,215,7.0,21.0,47,0.00,,,-99.99,,2013-01-19 11:03:00,
2013-01-19 06:12:00,39.0,20.0,-100.00,SSW,205,9.0,22.0,46,0.00,,,-99.99,,2013-01-19 11:12:00,
2013-01-19 07:48:00,39.0,21.0,-100.00,SSW,210,9.0,20.0,46,0.00,,,-99.99,,2013-01-19 12:48:00,
2013-01-19 08:03:00,39.0,21.0,-100.00,SSW,200,6.0,18.0,47,0.00,,,-99.99,,2013-01-19 13:03:00,
2013-01-19 08:12:00,39.0,21.0,-100.00,SW,225,9.0,18.0,47,0.00,,,-99.99,,2013-01-19 13:12:00,
2013-01-19 08:22:00,39.0,21.0,-100.00,SSW,210,6.0,16.0,48,0.00,,,-99.99,,2013-01-19 13:22:00,
2013-01-19 08:33:00,39.0,21.0,-100.00,SW,220,9.0,20.0,48,0.00,,,-99.99,,2013-01-19 13:33:00,
2013-01-19 08:43:00,39.0,22.0,-100.00,SSW,210,7.0,22.0,48,0.00,,,-99.99,,2013-01-19 13:43:00,
2013-01-19 08:53:00,40.0,22.0,-100.00,SW,215,7.0,19.0,48,0.00,,,-99.99,,2013-01-19 13:53:00,
2013-01-19 09:03:00,40.0,22.0,-100.00,SW,225,8.0,17.0,48,0.00,,,-99.99,,2013-01-19 14:03:00,
2013-01-19 09:12:00,40.0,22.0,-100.00,SSW,210,6.0,17.0,48,0.00,,,-99.99,,2013-01-19 14:12:00,
2013-01-19 09:23:00,41.0,23.0,-100.00,SW,215,11.0,17.0,48,0.00,,,-99.99,,2013-01-19 14:23:00,
2013-01-19 09:34:00,41.0,23.0,-100.00,SW,235,8.0,21.0,48,0.00,,,-99.99,,2013-01-19 14:34:00,
2013-01-19 09:43:00,42.0,23.0,-100.00,SW,235,6.0,15.0,47,0.00,,,-99.99,,2013-01-19 14:43:00,
2013-01-19 09:53:00,42.0,23.0,-100.00,SW,230,10.0,18.0,47,0.00,,,-99.99,,2013-01-19 14:53:00,
2013-01-19 10:03:00,42.0,24.0,-100.00,SW,220,9.0,22.0,47,0.00,,,-99.99,,2013-01-19 15:03:00,
2013-01-19 10:13:00,43.0,24.0,-100.00,SSW,205,10.0,21.0,46,0.00,,,-99.99,,2013-01-19 15:13:00,
2013-01-19 10:23:00,43.0,24.0,-100.00,SW,215,11.0,19.0,46,0.00,,,-99.99,,2013-01-19 15:23:00,
2013-01-19 10:33:00,44.0,24.0,-100.00,SSW,205,8.0,21.0,45,0.00,,,-99.99,,2013-01-19 15:33:00,
2013-01-19 10:43:00,45.0,25.0,-100.00,WSW,250,9.0,19.0,45,0.00,,,-99.99,,2013-01-19 15:43:00,
2013-01-19 10:53:00,45.0,25.0,-100.00,SW,215,6.0,17.0,44,0.00,,,-99.99,,2013-01-19 15:53:00,
2013-01-19 11:03:00,46.0,25.0,-100.00,SW,220,11.0,22.0,43,0.00,,,-99.99,,2013-01-19 16:03:00,
2013-01-19 11:13:00,46.0,25.0,-100.00,SSW,210,6.0,19.0,43,0.00,,,-99.99,,2013-01-19 16:13:00,
2013-01-19 11:23:00,46.0,25.0,-100.00,SSW,210,8.0,19.0,43,0.00,,,-99.99,,2013-01-19 16:23:00,
2013-01-19 11:33:00,47.0,25.0,-100.00,WSW,240,7.0,17.0,42,0.00,,,-99.99,,2013-01-19 16:33:00,
2013-01-19 11:43:00,47.0,25.0,-100.00,SW,230,6.0,23.0,42,0.00,,,-99.99,,2013-01-19 16:43:00,
2013-01-19 11:53:00,47.0,26.0,-100.00,WSW,245,10.0,24.0,42,0.00,,,-99.99,,2013-01-19 16:53:00,
2013-01-19 12:03:00,48.0,26.0,-100.00,SSW,205,10.0,21.0,42,0.00,,,-99.99,,2013-01-19 17:03:00,
2013-01-19 12:20:00,48.0,26.0,-100.00,WSW,245,11.0,23.0,42,0.00,,,-99.99,,2013-01-19 17:20:00,
2013-01-19 12:29:00,49.0,27.0,-100.00,SW,230,9.0,21.0,41,0.00,,,-99.99,,2013-01-19 17:29:00,
2013-01-19 12:36:00,49.0,26.0,-100.00,West,265,5.0,20.0,41,0.00,,,-99.99,,2013-01-19 17:36:00,
2013-01-19 12:48:00,48.0,26.0,-100.00,SW,220,14.0,23.0,41,0.00,,,-99.99,,2013-01-19 17:48:00,
2013-01-19 12:53:00,49.0,27.0,-100.00,SW,235,9.0,21.0,41,0.00,,,-99.99,,2013-01-19 17:53:00,
2013-01-19 13:12:00,49.0,27.0,-100.00,SW,230,11.0,21.0,41,0.00,,,-99.99,,2013-01-19 18:12:00,
2013-01-19 13:36:00,49.0,27.0,-100.00,SW,215,12.0,22.0,41,0.00,,,-99.99,,2013-01-19 18:36:00,
2013-01-19 13:45:00,50.0,27.0,-100.00,SSW,205,10.0,23.0,41,0.00,,,-99.99,,2013-01-19 18:45:00,
2013-01-19 13:55:00,50.0,27.0,-100.00,SSW,195,11.0,20.0,41,0.00,,,-99.99,,2013-01-19 18:55:00,
2013-01-19 14:09:00,50.0,27.0,-100.00,SSW,200,9.0,20.0,41,0.00,,,-99.99,,2013-01-19 19:09:00,
2013-01-19 14:20:00,50.0,27.0,-100.00,SSW,200,13.0,22.0,41,0.00,,,-99.99,,2013-01-19 19:20:00,
2013-01-19 14:30:00,50.0,27.0,-100.00,South,190,9.0,18.0,40,0.00,,,-99.99,,2013-01-19 19:30:00,
2013-01-19 14:40:00,50.0,27.0,-100.00,SSW,195,12.0,24.0,40,0.00,,,-99.99,,2013-01-19 19:40:00,
2013-01-19 14:54:00,50.0,27.0,-100.00,SW,220,11.0,25.0,40,0.00,,,-99.99,,2013-01-19 19:54:00,
2013-01-19 15:10:00,50.0,27.0,-100.00,SW,220,12.0,24.0,40,0.00,,,-99.99,,2013-01-19 20:10:00,
2013-01-19 15:19:00,50.0,27.0,-100.00,SW,220,12.0,24.0,40,0.00,,,-99.99,,2013-01-19 20:19:00,
2013-01-19 15:25:00,50.0,27.0,-100.00,SSW,205,15.0,28.0,40,0.00,,,-99.99,,2013-01-19 20:25:00,
2013-01-19 15:39:00,50.0,27.0,-100.00,SW,225,13.0,25.0,40,0.00,,,-99.99,,2013-01-19 20:39:00,
2013-01-19 15:59:00,51.0,27.0,-100.00,SW,215,9.0,28.0,40,0.00,,,-99.99,,2013-01-19 20:59:00,
2013-01-19 16:07:00,50.0,27.0,-100.00,SSW,205,14.0,26.0,40,0.00,,,-99.99,,2013-01-19 21:07:00,
2013-01-19 16:14:00,51.0,27.0,-100.00,SSW,200,11.0,21.0,40,0.00,,,-99.99,,2013-01-19 21:14:00,
2013-01-19 16:26:00,50.0,27.0,-100.00,SSW,200,17.0,28.0,40,0.00,,,-99.99,,2013-01-19 21:26:00,
2013-01-19 16:45:00,50.0,27.0,-100.00,SW,220,12.0,24.0,40,0.00,,,-99.99,,2013-01-19 21:45:00,
2013-01-19 16:57:00,50.0,27.0,-100.00,SSW,195,12.0,24.0,39,0.00,,,-99.99,,2013-01-19 21:57:00,
2013-01-19 17:15:00,50.0,27.0,-100.00,SSW,210,10.0,24.0,39,0.00,,,-99.99,,2013-01-19 22:15:00,
2013-01-19 17:27:00,49.0,26.0,-100.00,SSW,200,9.0,24.0,39,0.00,,,-99.99,,2013-01-19 22:27:00,
2013-01-19 17:35:00,49.0,26.0,-100.00,SSW,195,10.0,21.0,39,0.00,,,-99.99,,2013-01-19 22:35:00,
2013-01-19 17:47:00,49.0,26.0,-100.00,SSW,205,9.0,21.0,39,0.00,,,-99.99,,2013-01-19 22:47:00,
2013-01-19 17:55:00,49.0,25.0,-100.00,SSW,195,10.0,20.0,39,0.00,,,-99.99,,2013-01-19 22:55:00,
2013-01-19 18:13:00,49.0,25.0,-100.00,SSW,205,9.0,19.0,39,0.00,,,-99.99,,2013-01-19 23:13:00,
2013-01-19 18:25:00,48.0,25.0,-100.00,SW,235,4.0,16.0,39,0.00,,,-99.99,,2013-01-19 23:25:00,
2013-01-19 18:35:00,48.0,25.0,-100.00,SW,220,8.0,18.0,40,0.00,,,-99.99,,2013-01-19 23:35:00,
2013-01-19 18:45:00,48.0,25.0,-100.00,SW,235,9.0,16.0,40,0.00,,,-99.99,,2013-01-19 23:45:00,
2013-01-19 19:00:00,48.0,25.0,-100.00,SSW,205,9.0,16.0,40,0.00,,,-99.99,,2013-01-20 00:00:00,
2013-01-19 19:09:00,48.0,25.0,-100.00,SW,235,10.0,17.0,40,0.00,,,-99.99,,2013-01-20 00:09:00,
2013-01-19 19:15:00,48.0,25.0,-100.00,SW,215,9.0,19.0,39,0.00,,,-99.99,,2013-01-20 00:15:00,
2013-01-19 19:25:00,48.0,25.0,-100.00,SW,225,7.0,18.0,39,0.00,,,-99.99,,2013-01-20 00:25:00,
2013-01-19 19:35:00,48.0,25.0,-100.00,SW,225,7.0,17.0,39,0.00,,,-99.99,,2013-01-20 00:35:00,
2013-01-19 19:46:00,48.0,25.0,-100.00,SW,220,9.0,20.0,39,0.00,,,-99.99,,2013-01-20 00:46:00,
2013-01-19 19:54:00,48.0,25.0,-100.00,SW,220,9.0,20.0,39,0.00,,,-99.99,,2013-01-20 00:54:00,
2013-01-19 20:04:00,48.0,25.0,-100.00,SW,220,14.0,23.0,39,0.00,,,-99.99,,2013-01-20 01:04:00,
2013-01-19 20:20:00,48.0,25.0,-100.00,SW,235,12.0,21.0,39,0.00,,,-99.99,,2013-01-20 01:20:00,
2013-01-19 20:27:00,48.0,25.0,-100.00,SW,215,11.0,21.0,39,0.00,,,-99.99,,2013-01-20 01:27:00,
2013-01-19 20:38:00,48.0,25.0,-100.00,SSW,195,11.0,24.0,39,0.00,,,-99.99,,2013-01-20 01:38:00,
2013-01-19 20:48:00,48.0,25.0,-100.00,SW,220,9.0,20.0,40,0.00,,,-99.99,,2013-01-20 01:48:00,
2013-01-19 21:08:00,47.0,25.0,-100.00,SW,215,8.0,20.0,41,0.00,,,-99.99,,2013-01-20 02:08:00,
2013-01-19 21:15:00,47.0,25.0,-100.00,SSW,205,9.0,22.0,41,0.00,,,-99.99,,2013-01-20 02:15:00,
2013-01-19 21:26:00,47.0,25.0,-100.00,South,190,7.0,17.0,41,0.00,,,-99.99,,2013-01-20 02:26:00,
2013-01-19 21:36:00,47.0,25.0,-100.00,SW,225,10.0,21.0,41,0.00,,,-99.99,,2013-01-20 02:36:00,
2013-01-19 21:44:00,47.0,25.0,-100.00,SSW,200,11.0,21.0,41,0.00,,,-99.99,,2013-01-20 02:44:00,
2013-01-19 21:55:00,47.0,25.0,-100.00,SW,225,12.0,21.0,41,0.00,,,-99.99,,2013-01-20 02:55:00,
2013-01-19 22:08:00,47.0,25.0,-100.00,SW,225,12.0,22.0,41,0.00,,,-99.99,,2013-01-20 03:08:00,
2013-01-19 22:14:00,47.0,25.0,-100.00,SSW,205,10.0,21.0,41,0.00,,,-99.99,,2013-01-20 03:14:00,
2013-01-19 22:39:00,47.0,25.0,-100.00,SW,235,14.0,23.0,42,0.00,,,-99.99,,2013-01-20 03:39:00,
2013-01-19 22:45:00,47.0,25.0,-100.00,SW,215,10.0,23.0,42,0.00,,,-99.99,,2013-01-20 03:45:00,
2013-01-19 22:54:00,47.0,26.0,-100.00,SSW,195,9.0,26.0,42,0.00,,,-99.99,,2013-01-20 03:54:00,
2013-01-19 23:05:00,47.0,26.0,-100.00,SW,235,10.0,19.0,42,0.00,,,-99.99,,2013-01-20 04:05:00,
2013-01-19 23:15:00,47.0,26.0,-100.00,SSW,210,12.0,22.0,43,0.00,,,-99.99,,2013-01-20 04:15:00,
2013-01-19 23:26:00,47.0,26.0,-100.00,WSW,240,10.0,22.0,43,0.00,,,-99.99,,2013-01-20 04:26:00,
2013-01-19 23:37:00,48.0,27.0,-100.00,SW,230,16.0,28.0,43,0.00,,,-99.99,,2013-01-20 04:37:00,
2013-01-19 23:44:00,48.0,27.0,-100.00,SW,220,11.0,25.0,44,0.00,,,-99.99,,2013-01-20 04:44:00,
2013-01-19 23:54:00,48.0,27.0,-100.00,West,265,7.0,27.0,44,0.00,,,-99.99,,2013-01-20 04:54:00,